User: anonymous
Location: Oshawa
(43.9000°N, 78.8670°W)
Time: 06:16:58
(UTC-04:00)
Language:

Altair - Orbit

View from above orbital plane
View from above orbital plane
View from above satellite
View from above satellite

Ground track
Ground track

The orbit data is extracted from the following two-line orbital elements,

1 00050U 60009B   14272.71544124 -.00000105  00000-0 -19076-3 0  1181
2 00050 047.2297 120.7987 0113579 223.7440 135.4306 12.20084795415774
Epoch (UTC): 29 September 2014 17:10:14
Eccentricity: 0.0113579
inclination: 47.2297°
perigee height: 1501 km
apogee height: 1682 km
right ascension of ascending node: 120.7987°
argument of perigee: 223.7440°
revolutions per day: 12.20084795
mean anomaly at epoch: 135.4306°
orbit number at epoch: 41577

The dashed part of the orbit path shows where the satellite is in the earth's shadow,  

DLR